User: anonymous
Location: Unspecified
(0.0000°N, 0.0000°E)
Time: 05:15:29
(UTC+00:00)
Language:

Optus B3 - Orbit

View from above orbital plane
View from above orbital plane
View from above satellite
View from above satellite

Ground track
Ground track

The orbit data is extracted from the following two-line orbital elements,

1 23227U 94055A   14205.40088778 -.00000098  00000-0  10000-3 0  5160
2 23227 005.5961 058.9558 0004640 064.3682 127.0452 01.00272578 72874
Epoch (UTC): 24 July 2014 09:37:16
Eccentricity: 0.0004640
inclination: 5.5961°
perigee height: 35766 km
apogee height: 35805 km
right ascension of ascending node: 58.9558°
argument of perigee: 64.3682°
revolutions per day: 1.00272578
mean anomaly at epoch: 127.0452°
orbit number at epoch: 7287

The dashed part of the orbit path shows where the satellite is in the earth's shadow,  

DLR